Regional Weather Roundup
Issued by NWS Wakefield, VA

Home | Current Version | Previous Version | Graphics & Text | Print | Product List | Glossary On
Versions: 1 2 3 4 5 6 7 8 9 10 11 12 13 14 15 16 17 18 19 20 21 22 23 24 25 26 27 28 29 30 31 32 33 34 35 36 37 38 39 40 41 42 43 44 45 46 47 48 49 50
000
ASUS41 KAKQ 120314
RWRAKQ

REGIONAL WEATHER ROUNDUP
NATIONAL WEATHER SERVICE WAKEFIELD VA
1000 PM EST THU FEB 11 2016

Note: "fair" indicates few or no clouds below 12,000 feet with no
significant weather and/or obstructions to visibility. * = Denotes
station may not report precipitation (e.g., rain,snow,etc.),
thunder or fog.

VAZ042-051-052>054-056-120400-
NORTHERN VIRGINIA

CITY           SKY/WX    TMP DP  RH WIND       PRES   REMARKS
WASH NATIONAL  FAIR      23   0  36 N8G22     30.33R
DULLES         FAIR      20   2  45 VRB3      30.31R
FORT BELVOIR   FAIR      22   0  38 NW10      30.33R WCI  11
QUANTICO       FAIR      24   2  38 N8        30.36R
FREDERICKSBRG* FAIR      23   4  44 N6        30.32S
STAFFORD*      FAIR      20   3  48 N6        30.37R
WARRENTON      FAIR      19  10  66 NW6       30.31S
CULPEPER*      FAIR      20   1  42 NW6       30.33R
MANASSAS*      CLEAR     19   7  58 CALM      30.33R
LEESBURG*      FAIR      21   9  58 W6        30.32R
WINCHESTER     FAIR      19   5  53 W9        30.28R
FRONT ROYAL*   FAIR      19   1  45 CALM      30.28R
LURAY*         FAIR      19   1  45 CALM      30.28R
$$

VAZ048-049-060>072-079>083-120400-
CENTRAL AND SOUTH CENTRAL VIRGINIA

CITY           SKY/WX    TMP DP  RH WIND       PRES   REMARKS
RICHMOND       FAIR      24   2  38 N9        30.31R
CHESTERFIELD*  FAIR      25  -4  28 N5        30.32R
PETERSBURG*    FAIR      28  -5  23 N3        30.31S
HANOVER        FAIR      24   1  36 NW5       30.33R
TAPPAHANNOCK*  FAIR      25   3  38 CALM      30.32R
QUINTON*       FAIR      26   1  35 N6        30.32R
CHARLOTTSVILLE FAIR      21   0  39 VRB7      30.29S
GORDONSVILLE*  FAIR      20   4  50 NW5       30.31R
ORANGE*        FAIR      23   1  39 W5        30.33R
LOUISA*        FAIR      21   1  42 CALM      30.29S
BUMPASS*       FAIR      23   4  43 NW3       30.30S
FARMVILLE*     FAIR      26   2  35 N3        30.29R
CREWE*         FAIR      26   2  35 N5        30.28S
FORT PICKETT*  NOT AVBL
CHASE CITY*    FAIR      25   3  38 NW3       30.29R
CLARKSVILLE*   FAIR      28   5  37 CALM      30.29R
SOUTH HILL*    FAIR      24   7  48 N3        30.35R
LAWRENCEVILLE* FAIR      23   8  52 CALM      30.29R
EMPORIA*       FAIR      25   5  42 CALM      30.33R
$$

VAZ088>098-120400-
SOUTHEAST VIRGINIA

CITY           SKY/WX    TMP DP  RH WIND       PRES   REMARKS
NORFOLK        FAIR      32   4  30 N12G18    30.29R WCI  23
VIRGINIA BEACH FAIR      30   8  39 NW6       30.29R
NORFOLK NAVAL  FAIR      31   4  31 N14       30.31R WCI  21
WEST POINT*    FAIR      26  -1  31 N5        30.34R
SALUDA*        FAIR      26   5  39 NW12G18   30.32R WCI  16
NEWPORT NEWS   FAIR      26   5  40 N7        30.31R
LANGLEY AFB    FAIR      27   5  38 N7        30.30R
FORT EUSTIS    FAIR      29   3  33 N6        30.29R
WILLIAMSBURG*  FAIR      28   9  43 CALM      30.32R
HR EXEC AP*    FAIR      19  10  68 CALM      30.31R
FRANKLIN*      FAIR      26   6  44 CALM      30.31R
US460-WAKEFLD  FAIR      28   3  34 N6        30.30R
$$

VAZ020-022-025-037-045-120400-
WEST CENTRAL AND SOUTHWEST VIRGINIA

CITY           SKY/WX    TMP DP  RH WIND       PRES   REMARKS
STAUNTON*      FAIR      21   5  49 NW5       30.27S
WAYNESBORO*    FAIR      16   0  48 CALM      30.24R
HOT SPRINGS VA FAIR       9   1  71 W16       30.02S WCI  -8
LYNCHBURG      FAIR      23   2  40 CALM      30.28R
DANVILLE       FAIR      26   4  38 CALM      30.29R
SOUTH BOSTON*  FAIR      27   0  31 N3        30.30R
MARTINSVILLE   FAIR      25   2  37 N3        30.28R
ROANOKE        FAIR      22   5  48 N12       30.28R WCI  10
BLACKSBURG     FAIR      19   8  60 CALM      30.22S
DUBLIN*        FAIR      22   8  54 W3        30.20S
MARION*        FAIR      19   7  58 CALM      30.18S
HILLSVILLE*    FAIR      21   4  47 NW3       30.14S
RICHLANDS*     FAIR      21   4  47 CALM      30.16S
WISE*          FAIR      23   3  42 NW3       30.17S
ABINGDON*      FAIR      25   9  49 CALM      30.18F
$$

MDZ021>025-VAZ099-100-120400-
SOUTHERN MARYLAND AND THE DELMARVA PENINSULA

CITY           SKY/WX    TMP DP  RH WIND       PRES   REMARKS
PATUXENT RIVER PTCLDY    24   5  44 NW21G29   30.32R WCI   9
BAY BRIDGE APT   N/A     25   1  36 W13G22    30.32R WCI  13
LEONARDTOWN    CLEAR     23   0  36 NW9       30.33S
DOVER          CLEAR     22   4  46 W13       30.27R WCI  10
GEORGETOWN     CLEAR     23   2  40 W6        30.29R
EASTON         CLEAR     24   3  40 NW21G29   30.34R WCI   9
CAMBRIDGE      CLEAR     23   1  39 NW13      30.31R WCI  11
SALISBURY      CLEAR     23   4  44 NW9       30.30R
OCEAN CITY     CLEAR     22   4  46 NW9       30.29R
WALLOPS ISLAND FAIR      24   3  40 NW9       30.31R
ACCOMACK*      FAIR      27   7  43 N10       30.30R WCI  17
$$

NCZ012>017-030>032-120400-
NORTH CENTRAL AND EASTERN NORTH CAROLINA

CITY           SKY/WX    TMP DP  RH WIND       PRES   REMARKS
ROANOKE RAPIDS FAIR      30   9  40 CALM      30.30R
RALEIGH        CLEAR     28  11  48 NE7       30.28R
ELIZABETH CITY CLEAR     26  12  55 NW6       30.31R
AHOSKIE*       CLEAR     25  12  57 CALM      30.31R
EDENTON*       CLEAR     29  17  60 CALM      30.31R
CURRITUCK*     CLEAR     28  18  67 CALM      30.31R
KILL DEVIL HLS CLEAR     32  12  43 CALM      30.29R
MANTEO         CLEAR     34   8  33 NW6       30.30R
CAPE HATTERAS  CLEAR     36  12  37 NW6       30.30R
TARBORO*       FAIR      26  24  89 CALM      30.32R
GOLDSBORO      CLEAR     28  18  64 CALM      30.27R
WASHINGTON     CLEAR     26  16  65 CALM      30.31R
GREENVILLE     CLEAR     28  18  64 CALM      30.31R
NEW BERN       CLEAR     27  18  69 S3        30.32R
WILMINGTON     CLEAR     32  25  75 CALM      30.30R
$$

VAZ048-120400-
ELSEWHERE

CITY           SKY/WX    TMP DP  RH WIND       PRES   REMARKS
HARRISBURG PA  PTCLDY    19   4  51 NW18      30.25R WCI   4
BALTIMORE      CLEAR     21   1  41 W16       30.29R WCI   7
ANNAPOLIS      CLEAR     23   3  42 W8        30.31R
ANDREWS AFB    FAIR      22  -1  37 NW17      30.29S WCI   7
PHILADELPHIA   CLEAR     22  -2  35 W16       30.25R WCI   8
HENDERSON NC   CLEAR     27   2  33 N3        30.29R
GREENSBORO     PTCLDY    30   5  34 NE6       30.24R
ROCKY MOUNT    CLEAR     26  16  65 CALM      30.30R
$$

VAZ100-120400-
MARINE

STATION/POSITION TIME  TEMP    WIND        PRES    WAVE   SWELL
                       AIR SEA DIR/SP/G            HT/PER HT/PER
                 (UTC) (F)     (DEG/KT/KT) (MB)    (FT/S) (FT/S)
BRANDYWINE LGT   0200   24                   N/A
CAPE MAY NJ      0200   25 37                N/A
LEWES DE         0200   25 37                N/A
15NM E FENWICK I 0250   27 43              1024.7R   5/ 6
OCEAN-CITY-INLET 0200   25 41                N/A
WACHAPREAGUE VA  0200   28 39                N/A
THOMAS POINT MD  0200   24 37  320/ 15/ 17 1026.6R
GOOSES REEF MD   0200   26 38  320/ 17/ 21 1027.0R   2/ 3
COVE POINT MD    0200   24                   N/A
SOLOMONS ISLAND  0200   25 40                N/A
BISHOPS HEAD MD  0200   25 34                N/A
PINEY POINT MD   0200          350/ 18/ 20   N/A
POTOMAC MD       0200   27 39  340/ 16/ 19 1025.0R   2/ 3
CAMBRIDGE MD     0200   26 38                N/A
LEWISETTA VA     0200   27 39                N/A
RAPPAHANNOCK LGT 0200                      1025.3R
STINGRAY PT      0200   30 41  350/ 14/ 17 1025.6R   2/ 2
YORK RVR RNG VA  0200   31                   N/A
YORKTOWN VA      0200   31 41                N/A
JAMESTOWN VA     0200   30 42  330/  8/ 12   N/A
DOMINION TERM VA 0200   33                   N/A
KIPTOPEKE VA     0200      39                N/A
CHES BAY BRIDGE  0200   33 41                N/A
CAPE HENRY VA    0200   33                   N/A
CHESAPEAKE LGHT  0200   34     310/ 18/ 20 1025.6R
WILLOUBY STN VA  0200   33                   N/A
CAPE HENRY BUOY  0228      43                N/A     3/ 4
1ST LANDING BUOY 0200      41                N/A     2/ 3
CAPE CHARLES BUO 0226      42                N/A     2/ 3   2/10
OFFSHORE WE BUOY 0221      46                N/A     4/ 4   2/ 8
64NM E OF VA BCH 0250   36 49  310/ 17/ 21 1024.7R   5/ 6   2/ 9
DUCK PIER NC     0200   35                   N/A
44100 DUCK FRF   0224      46                N/A     2/ 6
44056 DUCK FRF   0211      43                N/A     2/13
OREGON INLET NC  0200   35 41                N/A
HATTERAS NC      0200   38 45                N/A
DIAMOND SHLS NC  0250   42 69  320/ 14/ 17 1026.1R   4/ 7   2/ 7
$$



USA.gov is the U.S. government's official web portal to all federal, state and local government web resources and services.